| time (UTC) | temp F | wind direction | speed knots | gust knots | rain 1hr in | rain 24hr in | rain mn in | humidity % | barometer mb |
| 20260510045430 | 74 | 147 | 2.6 | 5.2 | 0.00 | 0.00 | 0.00 | 67 | 1007.7 |
| 20260510044927 | 74 | 145 | 0.0 | 0.0 | 0.00 | 0.00 | 0.00 | 68 | 1007.8 |
| 20260510044423 | 74 | 150 | 0.9 | 2.6 | 0.00 | 0.00 | 0.00 | 68 | 1007.8 |
| 20260510043920 | 74 | 167 | 0.0 | 0.0 | 0.00 | 0.00 | 0.00 | 68 | 1007.8 |
| 20260510043416 | 74 | 166 | 0.0 | 0.0 | 0.00 | 0.00 | 0.00 | 68 | 1007.8 |
| 20260510042914 | 74 | 158 | 0.0 | 0.0 | 0.00 | 0.00 | 0.00 | 68 | 1007.9 |
| 20260510042410 | 74 | 155 | 0.0 | 0.0 | 0.00 | 0.00 | 0.00 | 68 | 1007.8 |
| 20260510041906 | 75 | 150 | 0.0 | 0.0 | 0.00 | 0.00 | 0.00 | 68 | 1007.4 |
| 20260510041403 | 75 | 176 | 0.0 | 0.0 | 0.00 | 0.00 | 0.00 | 68 | 1007.9 |
| 20260510040901 | 75 | 178 | 2.6 | 2.6 | 0.00 | 0.00 | 0.00 | 68 | 1007.6 |
| 20260510040358 | 75 | 154 | 0.0 | 1.7 | 0.00 | 0.00 | 0.00 | 68 | 1007.6 |
| 20260510035853 | 75 | 169 | 4.3 | 5.2 | 0.00 | 0.00 | 0.00 | 69 | 1007.8 |
| 20260510035349 | 75 | 171 | 0.0 | 0.0 | 0.00 | 0.00 | 0.00 | 69 | 1007.8 |
| 20260510034844 | 75 | 136 | 0.0 | 0.0 | 0.00 | 0.00 | 0.00 | 69 | 1007.7 |
| 20260510034343 | 75 | 161 | 0.0 | 0.0 | 0.00 | 0.00 | 0.00 | 69 | 1007.9 |
| 20260510033839 | 76 | 161 | 1.7 | 4.3 | 0.00 | 0.00 | 0.00 | 68 | 1007.7 |
| 20260510033336 | 76 | 137 | 0.0 | 0.9 | 0.00 | 0.00 | 0.00 | 68 | 1007.8 |
| 20260510032832 | 75 | 168 | 0.0 | 0.0 | 0.00 | 0.00 | 0.00 | 69 | 1007.8 |
| 20260510032329 | 75 | 161 | 0.0 | 0.9 | 0.00 | 0.00 | 0.00 | 69 | 1007.9 |
| 20260510031825 | 75 | 158 | 0.9 | 2.6 | 0.00 | 0.00 | 0.00 | 69 | 1007.7 |
| 20260510031321 | 76 | 169 | 1.7 | 4.3 | 0.00 | 0.00 | 0.00 | 68 | 1007.8 |
| 20260510030821 | 76 | 152 | 0.0 | 0.0 | 0.00 | 0.00 | 0.00 | 67 | 1007.8 |
| 20260510030317 | 76 | 172 | 0.0 | 1.7 | 0.00 | 0.00 | 0.00 | 67 | 1007.7 |
| 20260510025815 | 76 | 148 | 0.0 | 0.0 | 0.00 | 0.00 | 0.00 | 68 | 1007.8 |
| 20260510025312 | 76 | 162 | 0.0 | 0.0 | 0.00 | 0.00 | 0.00 | 68 | 1008.0 |
| 20260510024809 | 76 | 163 | 0.0 | 0.0 | 0.00 | 0.00 | 0.00 | 68 | 1007.8 |
| 20260510024306 | 76 | 142 | 0.0 | 0.0 | 0.00 | 0.00 | 0.00 | 67 | 1007.8 |
| 20260510023802 | 76 | 146 | 4.3 | 6.1 | 0.00 | 0.00 | 0.00 | 67 | 1007.6 |
| 20260510023258 | 77 | 151 | 5.2 | 7.0 | 0.00 | 0.00 | 0.00 | 66 | 1007.7 |
| 20260510022756 | 77 | 153 | 4.3 | 4.3 | 0.00 | 0.00 | 0.00 | 65 | 1007.6 |
| 20260510022255 | 77 | 158 | 2.6 | 5.2 | 0.00 | 0.00 | 0.00 | 65 | 1007.6 |
| 20260510021754 | 77 | 139 | 3.5 | 4.3 | 0.00 | 0.00 | 0.00 | 65 | 1007.7 |
| 20260510021253 | 78 | 174 | 3.5 | 4.3 | 0.00 | 0.00 | 0.00 | 64 | 1007.6 |
| 20260510020749 | 78 | 166 | 3.5 | 4.3 | 0.00 | 0.00 | 0.00 | 64 | 1007.7 |
| 20260510020248 | 78 | 158 | 0.0 | 0.0 | 0.00 | 0.00 | 0.00 | 64 | 1007.5 |
| 20260510015745 | 78 | 148 | 0.0 | 0.9 | 0.00 | 0.00 | 0.00 | 64 | 1007.5 |
| 20260510015241 | 78 | 141 | 2.6 | 2.6 | 0.00 | 0.00 | 0.00 | 64 | 1007.4 |
| 20260510014736 | 78 | 159 | 1.7 | 2.6 | 0.00 | 0.00 | 0.00 | 64 | 1007.1 |
| 20260510014234 | 79 | 168 | 2.6 | 4.3 | 0.00 | 0.00 | 0.00 | 63 | 1006.9 |
| 20260510013729 | 79 | 152 | 2.6 | 2.6 | 0.00 | 0.00 | 0.00 | 63 | 1007.1 |
| 20260510013225 | 79 | 130 | 0.0 | 0.0 | 0.00 | 0.00 | 0.00 | 65 | 1007.1 |
| 20260510012725 | 80 | 158 | 1.7 | 1.7 | 0.00 | 0.00 | 0.00 | 63 | 1007.1 |
| 20260510012220 | 80 | 140 | 0.9 | 0.9 | 0.00 | 0.00 | 0.00 | 63 | 1007.0 |
| 20260510011715 | 80 | 157 | 2.6 | 2.6 | 0.00 | 0.00 | 0.00 | 62 | 1006.9 |
| 20260510011211 | 82 | 143 | 1.7 | 1.7 | 0.00 | 0.00 | 0.00 | 60 | 1006.8 |
| 20260510010707 | 82 | 138 | 0.9 | 1.7 | 0.00 | 0.00 | 0.00 | 59 | 1006.7 |
| 20260510010204 | 83 | 146 | 0.9 | 0.9 | 0.00 | 0.00 | 0.00 | 58 | 1006.7 |
| 20260510005701 | 84 | 150 | 1.7 | 1.7 | 0.00 | 0.00 | 0.00 | 57 | 1006.9 |
| 20260510005157 | 84 | 150 | 1.7 | 1.7 | 0.00 | 0.00 | 0.00 | 56 | 1006.8 |
| 20260510004655 | 85 | 149 | 1.7 | 1.7 | 0.00 | 0.00 | 0.00 | 54 | 1006.5 |
| 20260510004153 | 86 | 148 | 2.6 | 2.6 | 0.00 | 0.00 | 0.00 | 53 | 1006.6 |
| 20260510003650 | 86 | 148 | 2.6 | 2.6 | 0.00 | 0.00 | 0.00 | 52 | 1006.8 |
| 20260510003146 | 87 | 122 | 0.9 | 0.9 | 0.00 | 0.00 | 0.00 | 52 | 1006.6 |
| 20260510002646 | 87 | 149 | 2.6 | 2.6 | 0.00 | 0.00 | 0.00 | 51 | 1006.7 |
| 20260510002143 | 88 | 148 | 0.9 | 1.7 | 0.00 | 0.00 | 0.00 | 51 | 1006.5 |
| 20260510001640 | 88 | 141 | 2.6 | 2.6 | 0.00 | 0.00 | 0.00 | 50 | 1006.7 |
| 20260510001139 | 88 | 134 | 2.6 | 2.6 | 0.00 | 0.00 | 0.00 | 49 | 1006.6 |
| 20260510000638 | 88 | 140 | 2.6 | 2.6 | 0.00 | 0.00 | 0.00 | 50 | 1006.7 |
| 20260510000136 | 89 | 130 | 4.3 | 5.2 | 0.00 | 0.00 | 0.00 | 47 | 1006.7 |
| 20260509235632 | 89 | 125 | 1.7 | 1.7 | 0.00 | 0.00 | 0.00 | 48 | 1006.6 |
| 20260509235129 | 89 | 134 | 1.7 | 1.7 | 0.00 | 0.00 | 0.00 | 47 | 1006.9 |
| 20260509234625 | 89 | 133 | 2.6 | 4.3 | 0.00 | 0.00 | 0.00 | 47 | 1006.6 |
| 20260509234123 | 89 | 169 | 2.6 | 2.6 | 0.00 | 0.00 | 0.00 | 46 | 1006.6 |
| 20260509233620 | 90 | 153 | 6.1 | 7.0 | 0.00 | 0.00 | 0.00 | 48 | 1007.0 |
| 20260509233117 | 89 | 159 | 1.7 | 1.7 | 0.00 | 0.00 | 0.00 | 47 | 1006.8 |
| 20260509232613 | 90 | 154 | 3.5 | 5.2 | 0.00 | 0.00 | 0.00 | 46 | 1006.8 |
| 20260509232111 | 90 | 172 | 2.6 | 2.6 | 0.00 | 0.00 | 0.00 | 47 | 1006.9 |
| 20260509231607 | 90 | 123 | 5.2 | 6.1 | 0.00 | 0.00 | 0.00 | 45 | 1006.7 |
| 20260509231105 | 91 | 184 | 5.2 | 6.1 | 0.00 | 0.00 | 0.00 | 45 | 1006.9 |
| 20260509230601 | 90 | 160 | 2.6 | 2.6 | 0.00 | 0.00 | 0.00 | 47 | 1007.1 |
| 20260509230059 | 90 | 143 | 2.6 | 4.3 | 0.00 | 0.00 | 0.00 | 47 | 1007.1 |
| 20260509225554 | 91 | 163 | 4.3 | 6.1 | 0.00 | 0.00 | 0.00 | 46 | 1007.3 |
| 20260509225050 | 91 | 127 | 0.0 | 0.0 | 0.00 | 0.00 | 0.00 | 45 | 1007.1 |
| 20260509224546 | 92 | 156 | 1.7 | 2.6 | 0.00 | 0.00 | 0.00 | 44 | 1007.3 |
| 20260509224042 | 91 | 133 | 4.3 | 6.1 | 0.00 | 0.00 | 0.00 | 45 | 1007.2 |
| 20260509223539 | 91 | 158 | 3.5 | 4.3 | 0.00 | 0.00 | 0.00 | 47 | 1007.1 |
| 20260509223037 | 92 | 167 | 6.1 | 7.8 | 0.00 | 0.00 | 0.00 | 45 | 1007.0 |
| 20260509222533 | 92 | 165 | 2.6 | 4.3 | 0.00 | 0.00 | 0.00 | 44 | 1007.2 |
| 20260509222029 | 92 | 148 | 3.5 | 4.3 | 0.00 | 0.00 | 0.00 | 47 | 1007.3 |
| 20260509221525 | 92 | 161 | 0.9 | 1.7 | 0.00 | 0.00 | 0.00 | 46 | 1007.0 |
| 20260509221021 | 92 | 125 | 0.0 | 0.0 | 0.00 | 0.00 | 0.00 | 46 | 1007.2 |
| 20260509220517 | 93 | 145 | 0.0 | 0.0 | 0.00 | 0.00 | 0.00 | 44 | 1007.3 |
| 20260509220014 | 91 | 165 | 1.7 | 2.6 | 0.00 | 0.00 | 0.00 | 47 | 1007.3 |
| 20260509215509 | 92 | 157 | 5.2 | 7.0 | 0.00 | 0.00 | 0.00 | 46 | 1007.4 |
| 20260509215007 | 92 | 113 | 2.6 | 2.6 | 0.00 | 0.00 | 0.00 | 44 | 1007.6 |
| 20260509214504 | 92 | 156 | 2.6 | 4.3 | 0.00 | 0.00 | 0.00 | 45 | 1007.4 |
| 20260509214000 | 91 | 115 | 1.7 | 1.7 | 0.00 | 0.00 | 0.00 | 47 | 1007.5 |
| 20260509213456 | 91 | 195 | 1.7 | 2.6 | 0.00 | 0.00 | 0.00 | 46 | 1007.5 |
| 20260509212954 | 91 | 150 | 1.7 | 1.7 | 0.00 | 0.00 | 0.00 | 46 | 1007.6 |
| 20260509212451 | 90 | 46 | 0.9 | 0.9 | 0.00 | 0.00 | 0.00 | 48 | 1007.6 |
| 20260509211947 | 87 | 28 | 3.5 | 5.2 | 0.00 | 0.00 | 0.00 | 48 | 1007.7 |
| 20260509211443 | 88 | 282 | 5.2 | 6.1 | 0.00 | 0.00 | 0.00 | 49 | 1007.6 |
| 20260509210940 | 89 | 53 | 0.9 | 0.9 | 0.00 | 0.00 | 0.00 | 49 | 1007.8 |
| 20260509210437 | 88 | 293 | 3.5 | 4.3 | 0.00 | 0.00 | 0.00 | 49 | 1007.9 |
| 20260509205932 | 89 | 301 | 2.6 | 2.6 | 0.00 | 0.00 | 0.00 | 47 | 1008.0 |
| 20260509205427 | 88 | 55 | 2.6 | 4.3 | 0.00 | 0.00 | 0.00 | 47 | 1007.8 |
| 20260509204923 | 87 | 358 | 2.6 | 2.6 | 0.00 | 0.00 | 0.00 | 51 | 1008.3 |
| 20260509204419 | 86 | 326 | 2.6 | 4.3 | 0.00 | 0.00 | 0.00 | 48 | 1008.3 |
| 20260509203916 | 86 | 327 | 3.5 | 4.3 | 0.00 | 0.00 | 0.00 | 49 | 1008.4 |
| 20260509203412 | 87 | 288 | 2.6 | 5.2 | 0.00 | 0.00 | 0.00 | 49 | 1008.3 |
| 20260509202910 | 86 | 305 | 3.5 | 4.3 | 0.00 | 0.00 | 0.00 | 49 | 1008.7 |
| 20260509202405 | 86 | 304 | 4.3 | 6.1 | 0.00 | 0.00 | 0.00 | 50 | 1008.4 |
| 20260509201901 | 86 | 315 | 5.2 | 6.1 | 0.00 | 0.00 | 0.00 | 48 | 1008.4 |
| 20260509201356 | 87 | 235 | 3.5 | 5.2 | 0.00 | 0.00 | 0.00 | 50 | 1008.7 |
| 20260509200854 | 87 | 295 | 5.2 | 6.1 | 0.00 | 0.00 | 0.00 | 51 | 1008.6 |
| 20260509200348 | 87 | 284 | 1.7 | 1.7 | 0.00 | 0.00 | 0.00 | 50 | 1008.9 |
| 20260509195845 | 87 | 218 | 3.5 | 5.2 | 0.00 | 0.00 | 0.00 | 51 | 1008.9 |
| 20260509195345 | 86 | 225 | 2.6 | 2.6 | 0.00 | 0.00 | 0.00 | 51 | 1008.8 |
| 20260509194845 | 87 | 228 | 3.5 | 5.2 | 0.00 | 0.00 | 0.00 | 51 | 1009.0 |
| 20260509194341 | 86 | 218 | 3.5 | 5.2 | 0.00 | 0.00 | 0.00 | 51 | 1009.0 |
| 20260509193838 | 84 | 263 | 2.6 | 2.6 | 0.00 | 0.00 | 0.00 | 52 | 1009.2 |
| 20260509193338 | 86 | 326 | 4.3 | 5.2 | 0.00 | 0.00 | 0.00 | 54 | 1009.1 |
| 20260509192834 | 84 | 237 | 2.6 | 2.6 | 0.00 | 0.00 | 0.00 | 56 | 1009.2 |
| 20260509192330 | 84 | 213 | 1.7 | 2.6 | 0.00 | 0.00 | 0.00 | 56 | 1009.3 |
| 20260509191826 | 84 | 315 | 3.5 | 4.3 | 0.00 | 0.00 | 0.00 | 54 | 1009.3 |
| 20260509191322 | 86 | 288 | 0.9 | 1.7 | 0.00 | 0.00 | 0.00 | 52 | 1009.4 |
| 20260509190818 | 87 | 164 | 1.7 | 1.7 | 0.00 | 0.00 | 0.00 | 52 | 1009.4 |
| 20260509190315 | 87 | 266 | 1.7 | 2.6 | 0.00 | 0.00 | 0.00 | 55 | 1009.5 |
| 20260509185812 | 87 | 187 | 0.9 | 0.9 | 0.00 | 0.00 | 0.00 | 52 | 1009.4 |
| 20260509185308 | 87 | 152 | 0.9 | 0.9 | 0.00 | 0.00 | 0.00 | 52 | 1009.6 |
| 20260509184806 | 87 | 43 | 0.9 | 0.9 | 0.00 | 0.00 | 0.00 | 53 | 1009.5 |
| 20260509184303 | 84 | 37 | 0.9 | 1.7 | 0.00 | 0.00 | 0.00 | 54 | 1009.6 |
| 20260509183800 | 83 | 187 | 0.0 | 0.9 | 0.00 | 0.00 | 0.00 | 55 | 1009.8 |
| 20260509183255 | 83 | 288 | 1.7 | 2.6 | 0.00 | 0.00 | 0.00 | 58 | 1009.6 |
| 20260509182750 | 84 | 281 | 2.6 | 2.6 | 0.00 | 0.00 | 0.00 | 58 | 1010.0 |
| 20260509182248 | 83 | 316 | 2.6 | 2.6 | 0.00 | 0.00 | 0.00 | 56 | 1010.1 |
| 20260509181745 | 84 | 210 | 0.9 | 1.7 | 0.00 | 0.00 | 0.00 | 52 | 1009.9 |
| 20260509181243 | 84 | 339 | 0.9 | 0.9 | 0.00 | 0.00 | 0.00 | 51 | 1010.0 |
| 20260509180740 | 83 | 219 | 2.6 | 2.6 | 0.00 | 0.00 | 0.00 | 52 | 1010.2 |
| 20260509180236 | 83 | 328 | 1.7 | 2.6 | 0.00 | 0.00 | 0.00 | 54 | 1010.1 |
| 20260509175732 | 82 | 326 | 0.0 | 0.0 | 0.00 | 0.00 | 0.00 | 59 | 1010.1 |
| 20260509175229 | 82 | 64 | 1.7 | 1.7 | 0.00 | 0.00 | 0.00 | 59 | 1010.3 |
| 20260509174725 | 81 | 217 | 3.5 | 5.2 | 0.00 | 0.00 | 0.00 | 63 | 1010.4 |
| 20260509174220 | 80 | 221 | 1.7 | 2.6 | 0.00 | 0.00 | 0.00 | 65 | 1010.4 |
| 20260509173717 | 80 | 296 | 2.6 | 4.3 | 0.00 | 0.00 | 0.00 | 65 | 1010.6 |
| 20260509173212 | 80 | 215 | 3.5 | 4.3 | 0.00 | 0.00 | 0.00 | 65 | 1010.4 |
| 20260509172709 | 81 | 226 | 2.6 | 2.6 | 0.00 | 0.00 | 0.00 | 65 | 1010.7 |
| 20260509172205 | 81 | 185 | 1.7 | 1.7 | 0.00 | 0.00 | 0.00 | 65 | 1010.6 |
| 20260509171701 | 82 | 150 | 0.9 | 1.7 | 0.00 | 0.00 | 0.00 | 63 | 1010.7 |
| 20260509171157 | 80 | 76 | 1.7 | 1.7 | 0.00 | 0.00 | 0.00 | 64 | 1010.8 |
| 20260509170654 | 79 | 16 | 1.7 | 1.7 | 0.00 | 0.00 | 0.00 | 67 | 1010.8 |
| 20260509170150 | 80 | 285 | 3.5 | 4.3 | 0.00 | 0.00 | 0.00 | 66 | 1011.0 |
| 20260509165648 | 80 | 218 | 2.6 | 2.6 | 0.00 | 0.00 | 0.00 | 67 | 1011.0 |
| 20260509165144 | 79 | 195 | 0.9 | 0.9 | 0.00 | 0.00 | 0.00 | 67 | 1010.8 |
| 20260509164640 | 79 | 193 | 0.9 | 1.7 | 0.00 | 0.00 | 0.00 | 67 | 1010.9 |
| 20260509164136 | 78 | 84 | 0.0 | 0.0 | 0.00 | 0.00 | 0.00 | 67 | 1011.0 |
| 20260509163634 | 78 | 202 | 1.7 | 2.6 | 0.00 | 0.00 | 0.00 | 69 | 1011.2 |
| 20260509163129 | 77 | 44 | 0.9 | 0.9 | 0.00 | 0.00 | 0.00 | 68 | 1011.1 |
| 20260509162627 | 77 | 310 | 2.6 | 2.6 | 0.00 | 0.00 | 0.00 | 70 | 1011.1 |
| 20260509162123 | 77 | 214 | 1.7 | 2.6 | 0.00 | 0.00 | 0.00 | 69 | 1011.0 |
| 20260509161619 | 77 | 263 | 0.9 | 1.7 | 0.00 | 0.00 | 0.00 | 70 | 1011.0 |
| 20260509161114 | 76 | 208 | 2.6 | 2.6 | 0.00 | 0.00 | 0.00 | 70 | 1011.1 |
| 20260509160611 | 76 | 226 | 1.7 | 1.7 | 0.00 | 0.00 | 0.00 | 69 | 1011.1 |
| 20260509160106 | 77 | 257 | 2.6 | 2.6 | 0.00 | 0.00 | 0.00 | 69 | 1011.3 |
| 20260509155602 | 76 | 38 | 0.9 | 1.7 | 0.00 | 0.00 | 0.00 | 69 | 1011.1 |
| 20260509155058 | 75 | 155 | 0.9 | 1.7 | 0.00 | 0.00 | 0.00 | 70 | 1011.0 |
| 20260509154554 | 76 | 75 | 1.7 | 2.6 | 0.00 | 0.00 | 0.00 | 67 | 1011.0 |
| 20260509154052 | 74 | 315 | 0.9 | 0.9 | 0.00 | 0.00 | 0.00 | 72 | 1011.1 |
| 20260509153549 | 73 | 339 | 2.6 | 2.6 | 0.00 | 0.00 | 0.00 | 72 | 1011.1 |
| 20260509153040 | 73 | 179 | 0.0 | 0.0 | 0.00 | 0.00 | 0.00 | 73 | 1011.4 |
| 20260509152536 | 73 | 85 | 0.0 | 0.0 | 0.00 | 0.00 | 0.00 | 73 | 1011.1 |
| 20260509152034 | 73 | 316 | 2.6 | 2.6 | 0.00 | 0.00 | 0.00 | 74 | 1011.1 |
| 20260509151529 | 72 | 160 | 0.9 | 1.7 | 0.00 | 0.00 | 0.00 | 73 | 1011.4 |
| 20260509151027 | 72 | 221 | 1.7 | 1.7 | 0.00 | 0.00 | 0.00 | 74 | 1011.1 |
| 20260509150524 | 72 | 302 | 1.7 | 1.7 | 0.00 | 0.00 | 0.00 | 74 | 1011.0 |
| 20260509150023 | 71 | 57 | 0.0 | 0.9 | 0.00 | 0.00 | 0.00 | 75 | 1011.2 |
| 20260509145518 | 70 | 57 | 0.0 | 0.0 | 0.00 | 0.00 | 0.00 | 76 | 1010.9 |
| 20260509145013 | 70 | 60 | 0.9 | 0.9 | 0.00 | 0.00 | 0.00 | 76 | 1011.0 |
| 20260509144511 | 70 | 348 | 0.9 | 0.9 | 0.00 | 0.00 | 0.00 | 77 | 1011.2 |
| 20260509144008 | 70 | 66 | 0.9 | 1.7 | 0.00 | 0.00 | 0.00 | 77 | 1011.2 |
| 20260509143505 | 71 | 59 | 0.9 | 0.9 | 0.00 | 0.00 | 0.00 | 76 | 1011.2 |
| 20260509143003 | 70 | 23 | 1.7 | 1.7 | 0.00 | 0.00 | 0.00 | 77 | 1011.1 |
| 20260509142458 | 71 | 51 | 0.9 | 0.9 | 0.00 | 0.00 | 0.00 | 77 | 1011.3 |
| 20260509141953 | 70 | 69 | 0.0 | 0.0 | 0.00 | 0.00 | 0.00 | 77 | 1011.3 |
| 20260509141450 | 70 | 49 | 0.9 | 0.9 | 0.00 | 0.00 | 0.00 | 78 | 1011.3 |
| 20260509140947 | 70 | 43 | 0.9 | 0.9 | 0.00 | 0.00 | 0.00 | 78 | 1011.4 |
| 20260509140443 | 69 | 72 | 0.0 | 0.0 | 0.00 | 0.00 | 0.00 | 79 | 1011.8 |
| 20260509135942 | 68 | 328 | 1.7 | 1.7 | 0.00 | 0.00 | 0.00 | 80 | 1011.3 |
| 20260509135438 | 67 | 54 | 0.9 | 0.9 | 0.00 | 0.00 | 0.00 | 81 | 1011.5 |
| 20260509134936 | 67 | 51 | 0.9 | 1.7 | 0.00 | 0.00 | 0.00 | 80 | 1011.3 |
| 20260509134433 | 66 | 57 | 0.0 | 0.9 | 0.00 | 0.00 | 0.00 | 83 | 1011.6 |
| 20260509133931 | 66 | 35 | 0.9 | 0.9 | 0.00 | 0.00 | 0.00 | 83 | 1011.6 |
| 20260509133427 | 66 | 33 | 1.7 | 1.7 | 0.00 | 0.00 | 0.00 | 83 | 1011.6 |
| 20260509132925 | 66 | 47 | 0.9 | 1.7 | 0.00 | 0.00 | 0.00 | 83 | 1011.5 |
| 20260509132423 | 65 | 11 | 1.7 | 1.7 | 0.00 | 0.00 | 0.00 | 83 | 1011.7 |
| 20260509131920 | 65 | 45 | 0.0 | 0.9 | 0.00 | 0.00 | 0.00 | 83 | 1011.9 |
| 20260509131417 | 64 | 62 | 0.0 | 0.0 | 0.00 | 0.00 | 0.00 | 83 | 1011.8 |
| 20260509130914 | 64 | 40 | 0.0 | 0.9 | 0.00 | 0.00 | 0.00 | 85 | 1011.5 |
| 20260509130409 | 64 | 68 | 0.0 | 0.0 | 0.00 | 0.00 | 0.00 | 84 | 1011.5 |
| 20260509125906 | 64 | 80 | 0.9 | 1.7 | 0.00 | 0.00 | 0.00 | 85 | 1011.3 |
| 20260509125402 | 63 | 62 | 0.0 | 0.0 | 0.00 | 0.00 | 0.00 | 86 | 1011.3 |
| 20260509124858 | 63 | 70 | 0.9 | 0.9 | 0.00 | 0.00 | 0.00 | 86 | 1011.3 |
| 20260509124356 | 62 | 88 | 0.9 | 1.7 | 0.00 | 0.00 | 0.00 | 86 | 1011.1 |
| 20260509123854 | 62 | 79 | 2.6 | 2.6 | 0.00 | 0.00 | 0.00 | 87 | 1011.0 |
| 20260509123351 | 62 | 76 | 2.6 | 2.6 | 0.00 | 0.00 | 0.00 | 88 | 1011.0 |
| 20260509122846 | 61 | 86 | 0.0 | 0.9 | 0.00 | 0.00 | 0.00 | 88 | 1011.0 |
| 20260509122343 | 61 | 81 | 0.9 | 0.9 | 0.00 | 0.00 | 0.00 | 88 | 1010.7 |
| 20260509121840 | 61 | 71 | 2.6 | 2.6 | 0.00 | 0.00 | 0.00 | 88 | 1010.6 |
| 20260509121337 | 61 | 95 | 0.9 | 0.9 | 0.00 | 0.00 | 0.00 | 89 | 1010.9 |
| 20260509120835 | 61 | 88 | 0.9 | 1.7 | 0.00 | 0.00 | 0.00 | 89 | 1010.6 |
| 20260509120333 | 61 | 77 | 1.7 | 1.7 | 0.00 | 0.00 | 0.00 | 89 | 1010.4 |
| 20260509115831 | 60 | 61 | 3.5 | 4.3 | 0.00 | 0.00 | 0.00 | 90 | 1010.2 |
| 20260509115328 | 61 | 79 | 0.9 | 1.7 | 0.00 | 0.00 | 0.00 | 90 | 1010.0 |
| 20260509114825 | 61 | 72 | 2.6 | 2.6 | 0.00 | 0.00 | 0.00 | 90 | 1009.9 |
| 20260509114324 | 61 | 84 | 0.9 | 0.9 | 0.00 | 0.00 | 0.00 | 90 | 1009.9 |
| 20260509113823 | 62 | 86 | 1.7 | 1.7 | 0.00 | 0.00 | 0.00 | 89 | 1009.6 |
| 20260509113319 | 62 | 80 | 0.9 | 0.9 | 0.00 | 0.00 | 0.00 | 88 | 1009.5 |
| 20260509112816 | 63 | 63 | 0.0 | 0.0 | 0.00 | 0.00 | 0.00 | 87 | 1009.3 |
| 20260509112314 | 64 | 23 | 0.9 | 0.9 | 0.00 | 0.00 | 0.00 | 87 | 1009.4 |
| 20260509111810 | 64 | 346 | 1.7 | 1.7 | 0.00 | 0.00 | 0.00 | 87 | 1009.2 |
| 20260509111307 | 64 | 44 | 0.9 | 0.9 | 0.00 | 0.00 | 0.00 | 87 | 1009.2 |
| 20260509110805 | 64 | 43 | 0.0 | 0.0 | 0.00 | 0.00 | 0.00 | 86 | 1009.0 |
| 20260509110301 | 64 | 25 | 0.0 | 0.0 | 0.00 | 0.00 | 0.00 | 85 | 1009.0 |
| 20260509105759 | 64 | 29 | 0.9 | 0.9 | 0.00 | 0.00 | 0.00 | 85 | 1009.0 |
| 20260509105257 | 64 | 31 | 0.9 | 1.7 | 0.00 | 0.00 | 0.00 | 85 | 1009.0 |
| 20260509104753 | 64 | 48 | 0.0 | 0.9 | 0.00 | 0.00 | 0.00 | 85 | 1009.1 |
| 20260509104250 | 64 | 37 | 0.0 | 0.9 | 0.00 | 0.00 | 0.00 | 86 | 1009.4 |
| 20260509103749 | 63 | 26 | 1.7 | 1.7 | 0.00 | 0.00 | 0.00 | 87 | 1009.5 |
| 20260509103245 | 63 | 53 | 1.7 | 1.7 | 0.00 | 0.00 | 0.00 | 87 | 1009.8 |
| 20260509102744 | 64 | 73 | 0.9 | 0.9 | 0.00 | 0.00 | 0.00 | 87 | 1009.4 |
| 20260509102240 | 64 | 44 | 0.9 | 0.9 | 0.00 | 0.00 | 0.00 | 86 | 1009.4 |
| 20260509101737 | 64 | 154 | 0.0 | 0.9 | 0.00 | 0.00 | 0.00 | 86 | 1009.3 |
| 20260509101233 | 64 | 217 | 2.6 | 2.6 | 0.00 | 0.00 | 0.00 | 85 | 1009.2 |
| 20260509100731 | 64 | 200 | 1.7 | 1.7 | 0.00 | 0.00 | 0.00 | 84 | 1009.3 |
| 20260509100228 | 64 | 166 | 0.0 | 0.0 | 0.00 | 0.00 | 0.00 | 85 | 1009.3 |
| 20260509095724 | 64 | 175 | 0.0 | 0.0 | 0.00 | 0.00 | 0.00 | 85 | 1009.5 |
| 20260509095222 | 64 | 182 | 1.7 | 1.7 | 0.00 | 0.00 | 0.00 | 85 | 1009.4 |
| 20260509094718 | 64 | 209 | 3.5 | 4.3 | 0.00 | 0.00 | 0.00 | 85 | 1009.2 |
| 20260509094215 | 65 | 223 | 7.8 | 8.7 | 0.00 | 0.00 | 0.00 | 83 | 1009.1 |
| 20260509093713 | 65 | 218 | 7.0 | 7.0 | 0.00 | 0.00 | 0.00 | 82 | 1009.1 |
| 20260509093210 | 66 | 239 | 7.8 | 9.6 | 0.00 | 0.00 | 0.00 | 81 | 1008.9 |
| 20260509092708 | 66 | 227 | 7.0 | 7.0 | 0.00 | 0.00 | 0.00 | 80 | 1008.9 |
| 20260509092206 | 66 | 224 | 10.4 | 12.2 | 0.00 | 0.00 | 0.00 | 80 | 1008.9 |
| 20260509091704 | 66 | 218 | 7.0 | 7.8 | 0.00 | 0.00 | 0.00 | 80 | 1008.6 |
| 20260509091200 | 66 | 224 | 8.7 | 9.6 | 0.00 | 0.00 | 0.00 | 82 | 1008.5 |
| 20260509090658 | 66 | 222 | 8.7 | 9.6 | 0.00 | 0.00 | 0.00 | 78 | 1007.9 |
| 20260509090155 | 66 | 203 | 7.8 | 8.7 | 0.00 | 0.00 | 0.00 | 77 | 1007.9 |
| 20260509085652 | 66 | 222 | 7.8 | 7.8 | 0.00 | 0.00 | 0.00 | 78 | 1007.8 |
| 20260509085149 | 67 | 217 | 7.8 | 8.7 | 0.00 | 0.00 | 0.00 | 78 | 1007.6 |
| 20260509084646 | 66 | 216 | 9.6 | 9.6 | 0.00 | 0.00 | 0.00 | 79 | 1007.7 |
| 20260509084143 | 67 | 214 | 9.6 | 12.2 | 0.00 | 0.00 | 0.00 | 81 | 1007.3 |
| 20260509083641 | 69 | 203 | 4.3 | 7.0 | 0.00 | 0.00 | 0.00 | 77 | 1007.0 |
| 20260509083136 | 69 | 277 | 5.2 | 6.1 | 0.00 | 0.00 | 0.00 | 72 | 1006.8 |
| 20260509082634 | 69 | 241 | 6.1 | 7.0 | 0.00 | 0.00 | 0.00 | 72 | 1006.1 |
| 20260509082130 | 67 | 286 | 6.1 | 7.0 | 0.00 | 0.00 | 0.00 | 80 | 1006.0 |
| 20260509081627 | 69 | 231 | 10.4 | 13.0 | 0.00 | 0.00 | 0.00 | 77 | 1005.2 |
| 20260509081125 | 68 | 220 | 13.0 | 13.9 | 0.00 | 0.00 | 0.00 | 69 | 1004.9 |
| 20260509080623 | 66 | 158 | 1.7 | 2.6 | 0.00 | 0.00 | 0.00 | 73 | 1004.9 |
| 20260509080120 | 66 | 147 | 0.0 | 0.9 | 0.00 | 0.00 | 0.00 | 76 | 1005.7 |
| 20260509075618 | 66 | 340 | 4.3 | 5.2 | 0.00 | 0.00 | 0.00 | 76 | 1007.1 |
| 20260509075116 | 66 | 125 | 3.5 | 4.3 | 0.00 | 0.00 | 0.00 | 72 | 1007.0 |
| 20260509074612 | 65 | 143 | 0.0 | 0.9 | 0.00 | 0.00 | 0.00 | 80 | 1008.0 |
| 20260509074108 | 66 | 148 | 0.0 | 0.9 | 0.00 | 0.00 | 0.00 | 79 | 1008.0 |
| 20260509073606 | 65 | 6 | 5.2 | 6.1 | 0.00 | 0.00 | 0.00 | 82 | 1008.2 |
| 20260509073102 | 65 | 111 | 0.0 | 0.0 | 0.00 | 0.00 | 0.00 | 81 | 1008.7 |
| 20260509072558 | 65 | 165 | 5.2 | 7.0 | 0.00 | 0.00 | 0.00 | 79 | 1009.0 |
| 20260509072050 | 66 | 129 | 0.9 | 0.9 | 0.00 | 0.00 | 0.00 | 79 | 1009.9 |
| 20260509071547 | 66 | 156 | 2.6 | 2.6 | 0.00 | 0.00 | 0.00 | 77 | 1009.9 |
| 20260509071045 | 66 | 157 | 0.0 | 0.9 | 0.00 | 0.00 | 0.00 | 79 | 1010.5 |
| 20260509070542 | 66 | 148 | 0.9 | 0.9 | 0.00 | 0.00 | 0.00 | 80 | 1010.9 |
| 20260509070037 | 66 | 186 | 1.7 | 2.6 | 0.00 | 0.00 | 0.00 | 78 | 1010.8 |
| 20260509065532 | 66 | 208 | 5.2 | 6.1 | 0.00 | 0.00 | 0.00 | 79 | 1011.5 |
| 20260509065029 | 66 | 222 | 9.6 | 12.2 | 0.00 | 0.00 | 0.00 | 79 | 1011.9 |
| 20260509064527 | 66 | 210 | 6.1 | 7.0 | 0.00 | 0.00 | 0.00 | 78 | 1011.8 |
| 20260509064026 | 65 | 214 | 5.2 | 6.1 | 0.00 | 0.00 | 0.00 | 76 | 1012.0 |
| 20260509063525 | 65 | 211 | 0.9 | 0.9 | 0.00 | 0.00 | 0.00 | 78 | 1012.0 |
| 20260509063023 | 64 | 237 | 7.0 | 7.8 | 0.00 | 0.00 | 0.00 | 81 | 1012.3 |
| 20260509062520 | 65 | 252 | 6.1 | 7.0 | 0.00 | 0.00 | 0.00 | 82 | 1012.2 |
| 20260509062018 | 65 | 296 | 9.6 | 9.6 | 0.00 | 0.00 | 0.00 | 78 | 1012.1 |
| 20260509061515 | 65 | 90 | 2.6 | 2.6 | 0.00 | 0.00 | 0.00 | 77 | 1011.7 |
| 20260509061012 | 65 | 53 | 7.0 | 8.7 | 0.00 | 0.00 | 0.00 | 77 | 1011.6 |
| 20260509060509 | 65 | 64 | 7.8 | 9.6 | 0.00 | 0.00 | 0.00 | 77 | 1011.5 |
| 20260509060005 | 64 | 72 | 9.6 | 12.2 | 0.00 | 0.00 | 0.00 | 82 | 1011.7 |
| 20260509055500 | 64 | 42 | 7.8 | 13.0 | 0.00 | 0.00 | 0.00 | 82 | 1012.1 |
| 20260509054957 | 66 | 89 | 7.8 | 7.8 | 0.00 | 0.00 | 0.00 | 78 | 1012.6 |
| 20260509054454 | 67 | 62 | 13.9 | 20.0 | 0.00 | 0.00 | 0.00 | 73 | 1012.6 |
| 20260509053952 | 69 | 42 | 8.7 | 12.2 | 0.00 | 0.00 | 0.00 | 70 | 1012.7 |
| 20260509053449 | 70 | 35 | 10.4 | 13.9 | 0.00 | 0.00 | 0.00 | 69 | 1012.5 |
| 20260509052947 | 70 | 16 | 7.8 | 9.6 | 0.00 | 0.00 | 0.00 | 81 | 1012.7 |
| 20260509052444 | 69 | 34 | 9.6 | 13.0 | 0.00 | 0.00 | 0.00 | 89 | 1012.4 |
| 20260509051942 | 69 | 104 | 7.0 | 11.3 | 0.00 | 0.00 | 0.00 | 90 | 1012.3 |
| 20260509051439 | 69 | 82 | 4.3 | 6.1 | 0.00 | 0.00 | 0.00 | 90 | 1012.3 |
| 20260509050936 | 68 | 52 | 5.2 | 8.7 | 0.00 | 0.00 | 0.00 | 90 | 1012.2 |
| 20260509050433 | 68 | 38 | 3.5 | 5.2 | 0.00 | 0.00 | 0.00 | 91 | 1011.4 |
| 20260509045930 | 68 | 94 | 2.6 | 2.6 | 0.00 | 0.09 | 0.09 | 91 | 1010.9 |